Zurück zum Katalog

STARLINK-4457

AktivKommunikationSSO
NORAD 53663·PAYLOAD·🇺🇸 United States

Gestartet Aug 31, 2022 von Vandenberg Space Force Base

Loading…

Nächste Überflüge (nächste 24 Stunden)

TLE

AktuellSource: CelesTrak SupGP

Epoche: Sep 15, 2026, 02:16 UTC

1 53663C 22105R   26258.09493056  .00067588  00000+0  20981-2 0  2585
2 53663  97.2839 134.9145 0002286  93.6698 133.1078 15.33403621    11

Verfolge STARLINK-4457 in Echtzeit mit AllMySat

Download on the App Store